Ozark, AL

1:47 AM CDT on July 21, 2017 (GMT -0500)
Cairns Army Air Field

Weather History for KOZR - January, 2013

Change the Weather History Date:

Saturday, January 5, 2013

  Actual Average Record
Temperature  
Mean Temperature 44 °F -  
Max Temperature 52 °F 58 °F 77 °F (2004)
Min Temperature 36 °F 37 °F 19 °F (2002)
Degree Days  
Heating Degree Days 21    
Moisture  
Dew Point 32 °F    
Average Humidity 59    
Maximum Humidity 72    
Minimum Humidity 40    
Precipitation  
Precipitation 0.00 in - - ()
Sea Level Pressure  
Sea Level Pressure 30.32 in    
Wind  
Wind Speed 5 mph (NNE)    
Max Wind Speed 10 mph    
Max Gust Speed -    
Visibility 10 miles    
Events Rain    
Averages and records for this station are not official NWS values.
T = Trace of Precipitation, MM = Missing Value Source: NWS Daily Summary

Daily Weather History Graph

Daily Weather History Graph

Search for Another Location

Airport or City:

Trip Planner

Search our weather history database for the weather conditions in past years. The results will help you decide how hot, cold, wet, or windy it might be!

Date:

Astronomy

Jan. 05, 2013 Rise Set
Actual Time 6:42 AM CST 4:54 PM CST
Civil Twilight 6:15 AM CST 5:21 PM CST
Nautical Twilight 5:45 AM CST 5:51 PM CST
Astronomical Twilight 5:16 AM CST 6:20 PM CST
Moon 12:01 AM CST (1/5) 11:32 AM CST (1/5)
Length of Visible Light 11h 05m
Length of Day
10h 12m
Last Quarter, 44% of the Moon is Illuminated
Jan 5
Last Quarter
Jan 11
New
Jan 18
First Quarter
Jan 26
Full
Feb 3
Last Quarter

Hourly Weather History & Observations

Time (CST) Temp. Windchill Dew Point Humidity Pressure Visibility Wind Dir Wind Speed Gust Speed Precip Events Conditions
12:55 AM 43.2 °F 38.4 °F 26.1 °F 51% 30.34 in 10.0 mi NNE 8.1 mph - N/A   Clear
1:55 AM 39.4 °F 36.1 °F 28.2 °F 64% 30.34 in 10.0 mi NE 4.6 mph - N/A   Clear
2:55 AM 38.8 °F 35.4 °F 27.9 °F 65% 30.35 in 10.0 mi North 4.6 mph - N/A   Clear
3:55 AM 39.2 °F 34.2 °F 27.9 °F 64% 30.34 in 10.0 mi North 6.9 mph - N/A   Clear
4:55 AM 39.7 °F 36.5 °F 26.2 °F 59% 30.35 in 10.0 mi North 4.6 mph - N/A   Clear
5:55 AM 36.7 °F 32.0 °F 28.4 °F 72% 30.36 in 10.0 mi NNE 5.8 mph - N/A   Clear
6:55 AM 36.7 °F - 28.0 °F 71% 30.37 in 10.0 mi Calm Calm - N/A   Clear
7:55 AM 39.4 °F 34.5 °F 28.8 °F 66% 30.38 in 10.0 mi NE 6.9 mph - N/A   Partly Cloudy
8:55 AM 45.1 °F 39.9 °F 29.3 °F 54% 30.38 in 10.0 mi ENE 10.4 mph - N/A   Clear
9:55 AM 49.1 °F - 29.3 °F 46% 30.38 in 10.0 mi East 6.9 mph - N/A   Clear
10:55 AM 50.9 °F - 30.6 °F 46% 30.36 in 10.0 mi North 3.5 mph - N/A   Partly Cloudy
11:55 AM 52.0 °F - 29.5 °F 42% 30.33 in 10.0 mi NNE 5.8 mph - N/A   Mostly Cloudy
12:55 PM 52.3 °F - 28.4 °F 40% 30.30 in 10.0 mi NE 3.5 mph - N/A   Scattered Clouds
1:34 PM 51.8 °F - 30.2 °F 44% 30.30 in 10.0 mi Calm Calm - N/A Rain Light Rain
1:53 PM 51.8 °F - 32.0 °F 47% 30.28 in 10.0 mi East 4.6 mph - N/A   Partly Cloudy
1:55 PM 51.4 °F - 33.1 °F 50% 30.27 in 10.0 mi East 4.6 mph - 0.00 in   Partly Cloudy
2:55 PM 52.0 °F - 32.2 °F 47% 30.29 in 10.0 mi NNW 3.5 mph - N/A   Partly Cloudy
3:55 PM 51.8 °F - 33.4 °F 50% 30.31 in 10.0 mi North 3.5 mph - N/A   Clear
4:55 PM 50.4 °F - 36.0 °F 58% 30.31 in 10.0 mi Calm Calm - N/A   Scattered Clouds
5:55 PM 48.9 °F - 39.4 °F 70% 30.32 in 10.0 mi Calm Calm - N/A   Mostly Cloudy
6:55 PM 49.1 °F - 39.6 °F 70% 30.33 in 10.0 mi Calm Calm - N/A   Overcast
7:55 PM 48.9 °F - 39.6 °F 70% 30.33 in 10.0 mi Calm Calm - N/A   Overcast
8:55 PM 48.6 °F - 39.7 °F 72% 30.31 in 10.0 mi NE 4.6 mph - N/A   Overcast
9:55 PM 49.3 °F - 37.8 °F 65% 30.28 in 10.0 mi North 3.5 mph - N/A   Overcast
10:55 PM 47.7 °F - 38.1 °F 70% 30.27 in 10.0 mi Calm Calm - N/A   Overcast
11:55 PM 47.5 °F - 37.6 °F 69% 30.24 in 10.0 mi NE 4.6 mph - N/A   Overcast